Temp
19 19 19 19 19 19 19 19 19 19 19 19 19 19 19 19 19 19 20 20 20 20 20 19 19 19 19 19 19 19 20 20 20 20 20 20 20 20 20 20 20 21
19 19 19 19 19 19 19 19 19 19 19 19 19 19 19 19 19 19 19 19 20 20 20 19 19 19 19 20 20 19 19 20 20 20 20 20 20 20 20 20 20 20
19 19 19 19 19 19 19 19 19 19 19 19 19 19 19 19 19 19 19 20 20 20 20 20 19 19 19 20 20 20 19 19 20 20 20 20 20 20 20 20 20 20
19 19 19 19 19 19 19 19 19 19 19 19 19 19 19 19 19 19 19 20 20 20 20 20 20 20 20 20 20 20 20 20 20 20 20 20 20 20 20 20 20 20
20 19 19 19 19 19 19 20 20 20 20 19 19 19 20 20 20 20 20 20 20 20 20 20 20 20 20 20 20 20 20 20 20 20 20 20 20 20 20 20 20 20
20 20 19 19 19 20 20 20 20 20 20 20 20 20 20 20 20 20 20 20 20 20 20 20 20 20 20 20 20 20 20 20 20 20 20 20 20 20 20 20 20 20
20 20 20 19 19 19 19 20 20 20 20 20 20 20 20 20 20 20 21 21 20 21 20 20 20 20 21 21 21 21 20 20 20 20 20 20 20 20 20 20 20 20
20 20 20 20 19 19 19 19 20 20 20 20 20 20 20 20 20 20 21 21 21 21 21 20 20 20 20 20 20 20 20 20 20 20 21 20 20 20 20 20 20 20
20 20 20 20 20 19 19 19 19 19 19 20 20 20 20 20 20 20 20 20 21 21 20 20 20 20 20 20 20 20 20 20 20 20 20 20 20 20 20 20 20 20
20 20 20 20 20 19 19 19 19 19 19 20 20 20 20 20 20 20 20 20 20 20 20 20 20 20 20 20 20 20 20 20 20 20 20 20 20 20 19 19 19 20
20 20 20 20 19 19 20 19 19 19 20 20 20 20 20 20 20 20 20 20 20 20 20 20 20 20 20 20 20 20 20 20 20 20 20 20 20 20 20 20 19 20
20 20 20 20 19 19 19 19 19 20 20 20 20 20 20 20 20 20 20 20 20 20 19 19 20 20 20 20 19 19 19 19 20 19 19 19 19 20 20 20 20 19
20 20 20 20 20 20 20 19 19 19 20 20 20 20 20 20 20 20 20 20 20 20 20 19 19 20 20 19 19 19 19 19 19 19 19 19 19 20 20 20 20 19
20 20 20 20 20 20 20 20 19 19 19 20 19 19 19 20 20 20 20 20 20 20 19 19 19 19 19 19 19 19 19 19 19 19 19 19 19 20 20 20 19 19
20 20 20 20 20 20 20 20 20 19 19 19 19 19 19 19 20 20 20 20 20 20 19 19 19 19 19 19 19 19 19 19 19 19 19 20 20 20 20 20 19 19
20 20 20 20 20 20 20 20 20 19 19 19 19 19 19 19 19 19 19 19 19 20 19 19 19 19 19 19 19 19 19 19 19 19 19 19 19 20 20 20 19 19
20 20 20 20 20 20 20 20 20 19 19 19 19 19 19 19 19 19 19 19 19 19 19 19 19 19 19 19 19 19 19 19 19 19 19 19 20 19 19 19 19 19
20 20 20 20 20 20 20 20 20 19 19 19 19 19 19 19 19 19 19 19 19 19 19 19 19 19 19 19 19 19 19 19 19 19 19 20 20 19 19 19 19 19
19 19 20 20 20 20 19 19 19 19 19 19 19 19 19 19 19 19 19 19 19 19 19 19 19 20 19 19 19 19 19 19 19 19 19 20 20 19 19 19 19 19
20 19 19 19 19 19 19 19 19 19 19 19 19 19 19 19 20 20 20 20 20 20 20 19 20 20 20 20 20 20 19 19 19 19 19 19 20 20 19 19 19 19
20 20 19 18 19 19 19 19 19 19 19 19 19 20 20 20 20 20 20 20 20 20 20 20 20 20 20 20 20 20 20 20 20 20 19 19 19 19 19 19 19 19
20 20 19 18 18 19 19 19 19 19 19 19 19 20 20 20 20 20 20 20 20 20 20 20 20 20 20 20 20 20 20 20 20 20 20 20 19 19 19 19 19 19
20 20 20 19 18 18 19 19 20 20 20 20 19 19 20 20 20 20 20 20 20 20 20 20 20 20 20 20 20 20 20 20 20 20 20 20 19 19 19 19 19 19
19 19 20 20 18 18 18 19 20 20 20 20 20 19 19 20 20 20 20 20 20 20 20 20 20 20 20 20 20 20 19 19 19 19 19 19 19 19 19 19 19 19
18 19 20 20 18 17 18 19 19 19 19 19 19 19 19 19 19 20 20 20 20 20 20 20 20 20 19 19 19 19 19 19 19 18 18 18 18 18 18 18 18 18
18 19 20 20 19 17 17 18 18 18 18 18 18 18 18 18 19 19 19 19 19 19 19 19 19 19 19 19 19 18 18 18 18 18 18 18 18 18 18 18 17 17
Height
1581 1583 1584 1586 1588 1589 1591 1592 1594 1595 1596 1597 1598 1600 1601 1602 1602 1603 1604 1604 1605 1605 1606 1607 1608 1608 1609 1610 1610 1611 1611 1612 1612 1612 1612 1613 1613 1613 1613 1614 1614 1614
1580 1582 1584 1585 1587 1589 1590 1592 1593 1595 1596 1597 1598 1599 1600 1601 1602 1603 1603 1604 1604 1605 1605 1606 1607 1608 1608 1609 1609 1610 1611 1611 1611 1611 1612 1612 1612 1613 1613 1613 1613 1614
1579 1581 1582 1584 1586 1588 1589 1591 1593 1594 1595 1597 1598 1599 1599 1600 1601 1602 1602 1603 1603 1604 1605 1605 1606 1607 1607 1608 1609 1609 1610 1610 1610 1611 1611 1611 1612 1612 1612 1613 1613 1613
1578 1580 1581 1583 1585 1587 1588 1590 1591 1593 1594 1595 1596 1597 1598 1598 1599 1600 1601 1602 1602 1603 1604 1605 1605 1606 1606 1607 1607 1608 1609 1609 1609 1610 1611 1611 1611 1612 1612 1612 1613 1613
1577 1579 1580 1582 1583 1585 1587 1588 1589 1591 1592 1593 1594 1595 1596 1597 1598 1598 1600 1600 1601 1602 1603 1603 1604 1605 1605 1606 1606 1607 1607 1608 1609 1609 1610 1610 1611 1611 1611 1612 1612 1612
1576 1578 1579 1581 1583 1584 1585 1587 1588 1589 1590 1591 1592 1593 1594 1595 1596 1597 1598 1599 1599 1600 1601 1602 1602 1603 1604 1604 1605 1606 1606 1607 1608 1608 1609 1610 1610 1610 1610 1611 1611 1612
1576 1578 1579 1581 1582 1583 1585 1586 1587 1588 1588 1590 1590 1591 1592 1593 1594 1595 1596 1597 1598 1599 1599 1600 1601 1602 1602 1603 1604 1605 1606 1606 1607 1607 1608 1609 1609 1609 1610 1610 1610 1610
1576 1577 1579 1580 1581 1583 1584 1585 1586 1587 1587 1588 1588 1589 1591 1592 1593 1594 1595 1596 1597 1597 1598 1599 1600 1601 1601 1602 1603 1604 1605 1605 1606 1607 1607 1608 1608 1609 1609 1609 1609 1609
1575 1577 1578 1580 1581 1582 1583 1584 1585 1585 1586 1586 1587 1588 1590 1591 1592 1593 1594 1595 1595 1596 1597 1598 1598 1599 1600 1601 1602 1603 1604 1604 1605 1605 1606 1607 1607 1608 1608 1608 1608 1608
1575 1576 1578 1579 1580 1582 1582 1583 1584 1584 1585 1585 1586 1587 1589 1590 1591 1591 1592 1593 1594 1595 1596 1597 1597 1598 1599 1600 1601 1602 1602 1603 1604 1604 1605 1606 1606 1607 1607 1607 1607 1607
1574 1576 1577 1578 1580 1581 1582 1582 1583 1583 1584 1585 1585 1586 1587 1588 1589 1590 1591 1592 1592 1593 1594 1595 1596 1597 1598 1599 1600 1600 1601 1602 1602 1603 1604 1604 1605 1605 1605 1606 1606 1606
1573 1575 1577 1578 1579 1580 1581 1582 1582 1583 1584 1584 1585 1585 1586 1587 1588 1589 1590 1590 1591 1592 1593 1594 1595 1596 1597 1597 1598 1599 1600 1600 1601 1602 1602 1603 1603 1604 1604 1604 1605 1605
1572 1574 1576 1577 1579 1580 1580 1581 1581 1582 1583 1583 1584 1584 1585 1586 1586 1587 1588 1589 1590 1591 1592 1593 1594 1595 1596 1596 1597 1598 1599 1599 1600 1600 1601 1601 1602 1602 1603 1603 1603 1603
1571 1573 1575 1576 1578 1579 1580 1580 1581 1582 1582 1583 1583 1583 1584 1585 1585 1586 1587 1587 1588 1589 1590 1591 1592 1593 1594 1595 1596 1597 1597 1598 1598 1599 1600 1600 1601 1601 1602 1602 1602 1602
1571 1572 1574 1575 1577 1578 1579 1580 1580 1581 1581 1582 1582 1583 1584 1584 1585 1585 1586 1586 1587 1588 1589 1590 1590 1592 1593 1594 1595 1595 1596 1597 1597 1597 1598 1599 1600 1600 1600 1600 1600 1601
1569 1571 1572 1574 1575 1577 1578 1579 1579 1580 1581 1581 1582 1582 1583 1584 1584 1585 1585 1585 1586 1587 1588 1588 1589 1590 1591 1592 1593 1594 1595 1595 1595 1596 1598 1598 1598 1599 1599 1599 1599 1599
1567 1569 1570 1572 1573 1575 1576 1577 1578 1579 1580 1580 1581 1581 1582 1583 1583 1583 1584 1584 1585 1586 1586 1587 1588 1589 1589 1590 1591 1592 1593 1593 1593 1595 1597 1597 1597 1597 1597 1597 1598 1598
1565 1567 1568 1570 1571 1573 1574 1575 1576 1577 1578 1579 1580 1580 1581 1581 1582 1582 1583 1583 1584 1584 1585 1585 1586 1587 1588 1588 1589 1589 1590 1591 1591 1593 1595 1595 1594 1595 1595 1596 1596 1596
1563 1565 1567 1568 1569 1570 1571 1573 1574 1575 1577 1578 1578 1579 1580 1580 1581 1581 1581 1582 1582 1583 1583 1584 1585 1585 1586 1587 1587 1588 1589 1589 1589 1590 1593 1594 1593 1593 1594 1594 1594 1595
1561 1563 1565 1566 1567 1568 1569 1570 1572 1573 1575 1576 1577 1577 1578 1578 1579 1579 1580 1580 1581 1581 1582 1582 1583 1584 1584 1585 1586 1586 1587 1587 1588 1588 1590 1592 1592 1592 1592 1592 1593 1593
1559 1561 1563 1565 1565 1567 1567 1568 1569 1571 1572 1574 1575 1576 1576 1576 1576 1577 1577 1578 1579 1579 1580 1581 1581 1582 1583 1583 1584 1585 1585 1586 1587 1587 1588 1589 1590 1590 1590 1591 1591 1591
1556 1559 1562 1564 1564 1564 1565 1565 1566 1568 1569 1571 1573 1574 1574 1574 1574 1575 1575 1576 1577 1577 1578 1579 1580 1580 1581 1582 1582 1583 1583 1584 1584 1585 1586 1587 1587 1588 1588 1589 1589 1589
1554 1556 1559 1562 1563 1563 1563 1564 1565 1566 1567 1568 1570 1571 1572 1572 1573 1573 1573 1573 1574 1575 1576 1577 1578 1579 1579 1580 1580 1581 1582 1582 1582 1583 1583 1583 1584 1585 1585 1586 1586 1586
1553 1554 1556 1558 1560 1561 1561 1561 1562 1563 1564 1565 1567 1568 1569 1570 1570 1570 1571 1571 1571 1572 1573 1574 1576 1576 1577 1578 1578 1579 1579 1580 1580 1580 1580 1581 1581 1582 1583 1583 1583 1583
1551 1552 1554 1556 1558 1558 1557 1557 1559 1561 1562 1563 1564 1565 1567 1568 1568 1568 1569 1568 1568 1569 1570 1572 1573 1574 1575 1576 1576 1577 1577 1578 1578 1578 1578 1578 1579 1579 1581 1581 1581 1581
1548 1549 1551 1553 1554 1555 1555 1555 1557 1559 1560 1562 1563 1565 1565 1566 1566 1566 1567 1566 1566 1566 1567 1569 1571 1572 1573 1573 1574 1574 1575 1575 1576 1575 1575 1576 1576 1577 1578 1578 1578 1578
Wind_Speed
17 15 14 12 11 11 12 12 12 12 11 11 10 9 8 7 8 9 10 10 9 9 8 9 8 7 6 6 6 6 6 6 7 7 7 7 7 6 6 5 5 4
17 16 15 13 12 11 12 13 13 13 12 11 10 9 8 8 9 9 10 10 9 9 8 7 7 7 7 7 6 6 6 7 7 7 6 7 8 8 7 6 6 6
18 17 16 14 13 11 11 12 13 12 12 11 10 9 8 8 9 9 9 10 10 9 8 8 7 7 7 7 7 7 7 6 7 7 6 7 8 8 8 8 7 7
18 18 16 15 14 12 12 12 12 12 11 11 10 9 9 9 10 10 10 11 11 10 9 9 8 8 7 7 7 7 7 7 7 7 7 7 8 8 9 8 8 7
19 18 17 16 15 14 13 13 12 12 11 11 10 10 10 11 11 12 11 11 12 11 11 10 9 9 8 8 7 7 7 8 7 8 8 8 8 9 9 9 9 8
20 20 19 17 16 15 15 14 13 13 12 12 12 12 13 13 13 13 13 13 13 12 12 11 10 10 9 8 8 8 8 8 9 9 9 8 8 9 9 9 10 9
21 21 20 19 18 17 16 15 14 14 14 13 14 15 15 15 15 15 14 14 13 13 13 12 11 11 10 9 9 9 9 10 10 11 10 10 9 9 9 10 11 10
22 21 21 20 19 18 17 16 16 16 15 16 16 17 17 16 15 15 14 14 14 13 13 12 11 11 11 10 9 9 10 11 11 12 11 11 10 10 10 10 11 11
22 22 21 20 19 19 18 17 17 17 17 18 17 17 16 16 15 14 14 14 14 13 13 13 13 11 11 11 10 10 10 11 11 12 11 11 10 10 10 11 12 12
22 22 21 20 20 19 19 17 17 18 18 18 17 16 16 15 14 14 14 15 15 14 14 14 14 13 12 12 11 11 11 11 11 12 12 11 11 10 11 12 12 12
22 22 22 21 20 20 19 18 18 18 17 16 16 15 15 15 15 15 15 15 15 15 15 15 15 14 13 12 12 11 11 12 12 12 12 12 12 12 13 13 13 13
22 22 21 21 20 20 19 18 18 18 17 16 15 15 15 15 15 15 15 15 14 15 15 15 15 14 13 13 12 11 11 12 12 12 12 12 13 13 13 13 13 12
22 21 21 21 20 20 19 19 18 18 17 16 15 15 15 15 15 15 14 13 13 14 15 15 15 14 14 13 12 12 12 12 12 12 13 14 13 13 12 12 12 12
23 21 21 21 20 20 19 19 19 18 17 16 16 15 15 15 15 14 13 13 13 13 14 16 16 16 15 15 14 14 13 13 13 14 14 14 14 13 13 12 11 11
23 22 21 21 21 20 20 19 19 18 18 17 16 16 15 14 14 14 14 13 13 13 14 16 17 16 16 16 16 15 15 14 15 15 14 14 14 13 13 12 11 11
24 23 22 21 21 21 20 20 19 19 19 18 17 16 15 14 14 14 14 13 13 14 15 16 17 16 16 16 16 16 15 15 16 16 14 14 14 13 12 12 11 11
25 24 23 23 22 21 21 20 20 20 20 19 17 16 15 14 14 14 13 13 13 13 14 16 17 16 15 15 14 15 16 16 17 16 14 14 14 13 12 12 11 11
26 25 25 24 23 22 21 21 20 20 20 20 18 17 16 15 14 14 13 14 14 14 14 16 17 16 15 14 14 14 15 16 17 15 13 14 14 13 12 12 11 11
26 27 26 25 25 24 22 21 20 20 20 20 19 18 17 16 16 15 14 14 14 15 15 15 16 16 15 15 14 14 14 15 16 14 12 12 14 13 13 12 12 13
27 28 28 27 26 25 23 22 21 20 19 19 19 19 18 17 17 16 16 15 15 16 16 16 16 15 15 15 14 14 14 14 14 14 13 12 13 14 13 13 14 14
25 28 30 30 28 27 25 23 22 21 20 20 20 20 20 19 18 17 17 17 16 16 17 17 16 16 16 16 15 15 15 15 14 14 14 14 15 15 15 15 16 17
25 28 31 31 30 29 27 25 24 23 22 22 21 21 20 19 19 19 18 18 18 17 17 18 18 17 17 17 16 16 16 16 16 15 15 15 15 16 15 16 17 18
26 27 29 30 31 30 28 24 23 22 22 22 22 22 21 20 20 20 19 19 19 19 19 19 19 19 19 18 18 18 17 18 17 17 17 17 17 17 17 17 17 18
25 25 26 27 30 30 28 25 24 23 21 20 20 22 23 22 22 22 21 21 21 20 20 21 20 20 20 19 19 19 19 19 19 20 20 21 21 21 20 20 21 21
22 22 24 25 27 29 28 25 24 23 21 20 21 23 24 24 24 24 23 23 23 22 21 22 21 21 21 21 21 21 21 21 22 22 23 22 22 21 21 23 24 25
18 19 21 23 26 28 26 23 23 23 23 21 21 23 25 25 25 24 24 24 24 23 22 22 22 22 22 22 22 23 23 23 22 22 22 22 21 20 20 21 23 24
Wind_Direction
208 210 211 207 206 208 208 207 203 201 205 207 208 208 204 204 212 215 214 214 216 217 215 214 218 226 231 219 209 213 219 223 225 227 231 236 241 248 254 260 266 269
211 213 213 211 210 213 213 210 205 202 205 210 211 210 208 210 215 219 219 219 222 224 224 226 230 237 240 230 220 224 230 231 230 230 236 243 245 247 252 260 266 267
214 215 215 215 215 218 219 217 214 208 207 212 215 216 216 215 219 224 226 225 227 228 228 234 240 244 244 236 227 229 234 236 238 239 243 252 252 249 250 256 264 267
216 217 219 220 220 223 224 222 222 219 215 214 215 220 223 221 223 227 230 231 230 229 229 234 238 238 239 239 239 242 243 244 247 247 249 256 257 253 252 256 261 263
219 220 221 223 225 226 225 222 221 222 220 218 217 220 224 225 225 226 230 232 233 233 233 235 239 239 236 238 244 251 253 252 253 254 254 253 253 253 254 256 259 259
222 222 222 224 227 227 226 223 220 219 218 218 218 221 224 225 225 224 225 228 231 235 237 238 242 242 239 239 243 249 251 250 252 256 256 251 247 250 254 255 256 255
223 224 224 225 226 227 226 225 223 219 216 217 220 221 224 225 226 226 226 226 227 232 235 238 240 241 240 241 244 248 248 246 248 251 253 251 246 247 253 256 255 253
224 224 224 225 226 226 225 223 222 220 218 220 222 223 225 228 230 231 233 232 231 232 233 231 232 236 239 242 245 248 247 247 248 248 250 250 248 247 251 256 259 259
226 224 224 225 226 225 224 222 221 222 223 225 225 226 228 231 233 235 237 237 235 235 233 228 225 229 236 241 245 247 247 245 246 249 250 250 250 251 252 254 258 262
228 226 225 224 225 225 224 223 223 225 228 230 229 229 230 232 235 237 238 237 235 234 234 231 227 225 229 236 240 243 245 244 244 248 250 249 249 249 250 251 255 261
230 228 226 225 226 226 226 225 226 228 230 232 232 231 232 233 234 234 235 236 235 234 234 234 231 226 224 229 235 238 241 242 244 245 247 248 248 248 249 251 255 260
230 229 228 228 229 229 228 228 229 230 229 230 231 231 232 233 231 230 229 229 229 231 232 231 230 228 224 224 227 229 232 236 239 241 243 244 246 248 249 251 255 258
230 228 228 229 231 232 231 231 232 232 228 227 228 230 232 232 229 228 228 228 227 228 228 226 225 225 222 220 219 221 227 232 234 237 239 240 245 250 252 255 260 263
230 228 227 228 230 232 233 234 235 234 232 229 229 231 234 234 230 229 230 232 232 228 224 222 222 223 221 221 221 224 230 234 237 239 239 239 244 249 253 257 262 265
231 229 227 227 229 230 231 232 233 233 233 231 231 234 237 236 233 232 234 233 233 231 225 222 222 222 223 226 228 231 236 241 244 246 245 245 247 248 251 256 262 266
233 230 228 228 230 231 231 232 231 230 230 231 233 236 237 237 236 236 237 235 233 233 230 226 225 224 227 231 235 240 246 251 252 252 253 253 252 251 253 258 265 270
233 230 228 228 230 230 229 230 230 229 230 231 234 235 235 237 239 240 240 238 237 237 235 232 231 232 235 238 242 248 254 256 254 251 251 254 255 255 259 263 267 271
233 232 230 228 228 227 225 226 226 227 229 232 234 235 235 236 240 242 242 241 240 240 238 236 235 236 239 241 245 250 252 252 252 248 245 251 257 260 262 265 266 266
235 237 233 227 225 223 221 219 221 224 227 230 233 234 235 238 242 245 245 244 242 240 240 239 238 239 240 241 244 247 248 250 254 256 252 251 256 259 260 262 261 260
234 236 235 230 223 219 218 217 219 223 226 229 231 232 235 239 242 245 246 245 244 242 240 240 240 241 242 242 242 243 245 247 254 263 265 263 263 262 260 261 260 259
233 232 234 235 228 220 218 217 218 222 226 231 233 233 234 236 236 238 240 241 244 243 240 239 240 241 243 243 244 244 245 248 252 259 265 268 267 265 263 263 262 262
235 232 236 242 237 227 222 219 217 219 224 233 238 237 236 236 234 235 235 237 241 243 243 242 242 243 244 246 249 249 250 253 257 260 263 264 264 265 266 265 265 266
239 238 241 246 244 235 228 225 225 225 229 237 242 241 239 237 235 235 235 236 238 241 244 246 245 245 246 248 251 252 253 256 258 260 261 261 263 264 265 267 267 266
242 242 242 245 247 242 235 233 235 236 235 238 240 241 242 242 239 235 232 232 233 236 241 244 245 246 247 249 250 252 254 256 257 259 261 263 265 266 267 268 268 267
242 242 240 244 250 248 242 240 242 241 238 239 241 240 242 245 243 237 232 230 229 230 235 239 243 245 247 249 251 253 255 256 257 260 262 264 267 269 271 271 270 268
242 244 242 245 249 248 244 241 243 243 243 246 248 247 246 245 240 234 231 230 229 229 232 237 241 245 247 249 251 253 255 257 258 261 264 265 267 271 273 273 272 270